Flag for Cyprus Weather past 2 weeks in Nicosia, Cyprus

Now
81 °F

Clear.


Feels Like: 85 °F
Forecast: 77 / 96 °F
Wind: 8 mph from Northwest

Location: Ercan

Current Time: Aug 31, 2014 at 2:17:00 AM

Latest Report: Aug 31, 2014 at 1:50 AM


Visibility: 10 mi

Pressure: 29.77 "Hg

Humidity: 79%

Dew point: 73 °F

Location of NicosiaLocation

Historic Weather in Nicosia — Graph

°F

Nicosia temperature yesterday

Maximum temperature yesterday: 100 °F (at 2:20 PM)
Minimum temperature yesterday: 75 °F (at 5:50 AM)
Average temperature yesterday: 87 °F

Past Weeks' High & Low Weather Summary

 TemperatureHumidityPressure
High104 °F (Aug 24, 12:50 PM)94% (Aug 16, 3:50 AM)29.92 "Hg (Aug 16, 3:50 AM)
Low70 °F (Aug 16, 6:00 AM)16% (Aug 24, 12:50 PM)29.56 "Hg (Aug 17, 1:50 PM)
Average86 °F57%29.73 "Hg
* Reported Aug 16 12:20 AM — Aug 31 12:50 AM, Nicosia, Weather by CustomWeather, © 2014

Note: Actual official high and low records may vary slightly from our data, if they occured in-between our weather recording intervals... More about our weather records

Advertising

Nicosia weather history for previous 24 hours

 ConditionsComfort  
Time TempWeatherWind HumidityBarometerVisibility
12:50 AM
Aug 31
81 °FClear.9 mph84%29.77 "Hg10 mi
12:20 AM81 °FClear.9 mph84%29.77 "Hg10 mi
11:50 PM
Aug 30
81 °FClear.10 mph84%29.77 "Hg10 mi
11:20 PM82 °FClear.10 mph74%29.77 "Hg10 mi
10:50 PM82 °FClear.13 mph79%29.77 "Hg10 mi
10:20 PM82 °FClear.13 mph74%29.77 "Hg10 mi
9:50 PM84 °FClear.12 mph70%29.77 "Hg10 mi
8:50 PM86 °FClear.13 mph66%29.77 "Hg10 mi
8:20 PM86 °FPassing clouds.10 mph66%29.74 "HgN/A
7:50 PM88 °FPassing clouds.12 mph62%29.74 "HgN/A
7:20 PM88 °FPassing clouds.13 mph62%29.74 "HgN/A
6:50 PM91 °FPassing clouds.12 mph56%29.74 "HgN/A
6:20 PM95 °FPassing clouds.6 mph39%29.74 "HgN/A
5:50 PM95 °FPassing clouds.8 mph41%29.74 "HgN/A
5:20 PM97 °FPassing clouds.9 mph39%29.74 "HgN/A
4:50 PM97 °FPassing clouds.10 mph39%29.74 "HgN/A
4:20 PM97 °FPassing clouds.12 mph42%29.74 "HgN/A
3:50 PM99 °FPassing clouds.12 mph39%29.74 "HgN/A
3:20 PM99 °FPassing clouds.8 mph39%29.74 "HgN/A
2:50 PM100 °FPassing clouds.8 mph37%29.74 "HgN/A
2:20 PM100 °FPassing clouds.6 mph33%29.74 "HgN/A
1:50 PM99 °FPassing clouds.6 mph35%29.77 "HgN/A
1:20 PM97 °FPassing clouds.5 mph34%29.77 "HgN/A
12:50 PM97 °FPassing clouds.5 mph37%29.77 "HgN/A
12:20 PM95 °FSunny.5 mph36%29.80 "Hg10 mi
11:50 AM95 °FPassing clouds.6 mph39%29.80 "HgN/A
11:20 AM93 °FPassing clouds.3 mph44%29.80 "HgN/A
10:50 AM91 °FSunny.No wind49%29.80 "Hg10 mi
10:20 AM90 °FSunny.No wind52%29.80 "Hg10 mi
9:50 AM88 °FSunny.No wind55%29.80 "Hg10 mi
9:20 AM86 °FSunny.No wind62%29.80 "Hg10 mi
8:50 AM84 °FSunny.5 mph70%29.80 "Hg10 mi
8:20 AM82 °FSunny.No wind74%29.80 "Hg10 mi
7:50 AM81 °FSunny.No wind79%29.80 "Hg10 mi
7:20 AM77 °FSunny.No wind83%29.80 "Hg10 mi
6:50 AM77 °FClear.3 mph83%29.80 "Hg10 mi
6:20 AM75 °FClear.5 mph83%29.77 "Hg10 mi
5:50 AM75 °FClear.No wind89%29.77 "Hg10 mi
5:20 AM77 °FClear.3 mph83%29.77 "Hg10 mi
4:50 AM77 °FClear.2 mph83%29.77 "Hg10 mi
4:20 AM77 °FClear.3 mph83%29.77 "Hg10 mi
3:50 AM79 °FClear.6 mph79%29.77 "Hg10 mi
3:20 AM79 °FClear.6 mph79%29.77 "Hg10 mi
2:50 AM79 °FClear.7 mph84%29.77 "Hg10 mi
2:20 AM79 °FClear.8 mph79%29.77 "Hg10 mi
Weather by CustomWeather, © 2014

See weather overviewHow to use our weather pages